CW8484 Weather Reports


Display with metric or nautical units.
time (UTC)temp
F
wind
direction
speed
MPH
gust
MPH
rain 1hr
in
rain 24hr
in
rain mn
in
humidity
%
barometer
mb
20260904053424 64 233 0.0 0.0 0.00 0.16 0.07 94 1009.1
20260904052402 64 233 0.0 0.0 0.00 0.17 0.07 94 1009.1
20260904051403 64 233 0.0 0.0 0.00 0.19 0.07 94 1009.2
20260904050403 64 233 0.0 0.0 0.00 0.24 0.07 94 1009.3
20260904045424 64 233 0.0 3.0 0.07 0.25 0.07 94 1009.3
20260904044403 64 233 0.0 1.0 0.07 0.30 0.07 94 1009.4
20260904043403 64 233 0.0 2.0 0.07 0.35 0.07 94 1009.5
20260904042403 63 234 0.0 1.0 0.05 0.40 0.05 93 1009.6
20260904041424 63 234 0.0 0.0 0.00 0.42 0.00 93 1009.7
20260904040424 63 234 0.0 0.0 0.00 0.48 0.00 93 1009.7
20260904035403 63 234 0.0 0.0 0.00 0.51 0.48 93 1009.7
20260904034402 63 234 0.0 0.0 0.00 0.55 0.48 93 1009.6
20260904033424 63 234 0.0 0.0 0.00 0.60 0.48 93 1009.5
20260904032403 64 233 0.0 0.0 0.00 0.62 0.48 92 1009.5
20260904031402 64 234 0.0 0.0 0.00 0.64 0.48 93 1009.5
20260904030403 64 234 0.0 0.0 0.00 0.65 0.48 92 1009.5
20260904025403 64 234 0.0 0.0 0.00 0.66 0.48 92 1009.5
20260904024403 64 234 0.0 0.0 0.00 0.70 0.48 92 1009.7
20260904022402 64 234 0.0 0.0 0.00 0.72 0.48 91 1009.8
20260904021404 64 234 0.0 0.0 0.00 0.73 0.48 91 1009.9
20260904020425 64 234 0.0 0.0 0.00 0.76 0.48 91 1009.8
20260904014404 65 235 0.0 0.0 0.00 0.79 0.48 90 1009.9
20260904013404 65 234 0.0 0.0 0.00 0.79 0.48 90 1009.9
20260904012425 65 234 0.0 2.0 0.00 0.79 0.48 90 1009.9
20260904011404 65 234 0.0 0.0 0.00 0.79 0.48 90 1009.9
20260904010404 65 234 0.0 1.0 0.00 0.79 0.48 90 1009.9
20260904005425 65 234 0.0 0.0 0.00 0.79 0.48 90 1009.9
20260904004404 65 234 0.0 1.0 0.00 0.79 0.48 89 1009.5
20260904003403 66 234 0.0 0.0 0.00 0.79 0.48 89 1009.5
20260904002404 67 234 0.0 0.0 0.00 0.79 0.48 88 1009.2
20260904001424 68 234 0.0 0.0 0.00 0.79 0.48 88 1009.1
20260904000425 68 234 0.0 0.0 0.00 0.79 0.48 88 1009.1
20260903235425 69 234 0.0 0.0 0.00 0.79 0.48 88 1009.0
20260903234403 69 234 0.0 0.0 0.00 0.79 0.48 88 1008.8
20260903233404 70 234 0.0 0.0 0.00 0.79 0.48 88 1008.7
20260903232404 70 234 0.0 0.0 0.00 0.79 0.48 87 1008.8
20260903231404 71 234 0.0 0.0 0.00 0.79 0.48 86 1008.9
20260903230403 71 234 0.0 0.0 0.00 0.79 0.48 86 1009.0
20260903225404 71 234 0.0 0.0 0.00 0.79 0.48 85 1008.8
20260903224403 72 234 0.0 0.0 0.00 0.79 0.48 84 1008.7
20260903223404 73 234 0.0 0.0 0.00 0.79 0.48 84 1008.8
20260903222404 74 234 0.0 0.0 0.00 0.79 0.48 82 1008.8
20260903221404 75 234 0.0 0.0 0.00 0.79 0.48 81 1008.9
20260903220404 76 233 0.0 4.0 0.00 0.79 0.48 78 1009.0
20260903215403 76 227 1.0 4.0 0.00 0.79 0.48 79 1009.0
20260903214404 76 222 1.0 4.0 0.00 0.79 0.48 78 1009.1
20260903213403 77 216 1.0 8.0 0.00 0.79 0.48 74 1008.8
20260903212404 79 264 0.0 0.0 0.00 0.79 0.48 73 1008.9
20260903211404 79 257 0.0 0.0 0.00 0.79 0.48 73 1008.7
20260903210404 79 264 0.0 0.0 0.00 0.79 0.48 74 1008.7
20260903205403 79 233 0.0 0.0 0.00 0.79 0.48 72 1008.6
20260903204404 78 268 0.0 0.0 0.00 0.79 0.48 77 1008.5
20260903203403 80 261 0.0 0.0 0.00 0.79 0.48 73 1008.6
20260903202404 80 264 0.0 0.0 0.00 0.79 0.48 74 1008.7
20260903201404 80 260 0.0 0.0 0.00 0.79 0.48 75 1008.7
20260903200404 79 245 0.0 0.0 0.00 0.79 0.48 74 1008.6
20260903195403 80 227 0.0 0.0 0.00 0.79 0.48 73 1008.5
20260903194404 81 248 0.0 0.0 0.00 0.79 0.48 78 1008.6
20260903193403 80 231 0.0 0.0 0.00 0.79 0.48 74 1008.7
20260903192425 81 192 0.0 0.0 0.00 0.79 0.48 71 1008.7
20260903191403 81 243 0.0 0.0 0.00 0.79 0.48 72 1008.6
20260903190404 82 256 0.0 0.0 0.00 0.79 0.48 69 1008.7
20260903185424 81 148 0.0 0.0 0.00 0.79 0.48 73 1008.8
20260903184404 81 312 0.0 0.0 0.00 0.79 0.48 72 1008.9
20260903183403 81 176 0.0 0.0 0.00 0.79 0.48 74 1008.9
20260903182403 81 176 0.0 0.0 0.00 0.79 0.48 75 1009.1
20260903181403 81 188 0.0 0.0 0.00 0.79 0.48 74 1009.0
20260903180404 80 167 0.0 0.0 0.00 0.79 0.48 77 1009.1
20260903175403 80 178 0.0 0.0 0.00 0.79 0.48 76 1009.1
20260903174403 80 150 0.0 0.0 0.00 0.79 0.48 76 1009.2
20260903173403 80 183 0.0 0.0 0.00 0.79 0.48 79 1009.3
20260903172403 79 75 0.0 0.0 0.00 0.79 0.48 79 1009.2
20260903171404 79 180 0.0 1.0 0.00 0.79 0.48 77 1009.3
20260903170403 78 217 1.0 9.0 0.00 0.79 0.48 80 1009.3
20260903165404 78 165 2.0 12.0 0.00 0.79 0.48 79 1009.3
20260903164403 78 176 0.0 10.0 0.00 0.79 0.48 81 1009.4
20260903163404 77 168 4.0 15.0 0.00 0.79 0.48 79 1009.6
20260903162403 77 172 4.0 13.0 0.00 0.79 0.48 81 1009.6
20260903161404 77 90 2.0 10.0 0.00 0.79 0.48 84 1009.7
20260903160403 75 132 1.0 11.0 0.00 0.79 0.48 85 1009.8
20260903155404 74 195 2.0 9.0 0.00 0.79 0.48 84 1009.8
20260903154403 74 174 1.0 9.0 0.00 0.79 0.48 84 1010.0
20260903153424 74 224 2.0 8.0 0.00 0.79 0.48 84 1010.2
20260903152403 73 174 5.0 12.0 0.00 0.79 0.48 88 1010.3
20260903151403 71 172 3.0 10.0 0.00 0.79 0.48 88 1010.5
20260903150403 71 179 2.0 10.0 0.00 0.79 0.48 91 1010.5
20260903145403 70 160 3.0 14.0 0.00 0.79 0.48 92 1010.7
20260903144404 68 184 2.0 9.0 0.00 0.79 0.48 92 1010.8
20260903143424 68 163 1.0 7.0 0.00 0.79 0.48 92 1010.8
20260903142403 67 176 2.0 11.0 0.00 0.79 0.48 93 1010.9
20260903141403 67 186 2.0 11.0 0.00 0.79 0.48 93 1010.9
20260903140403 67 204 3.0 11.0 0.00 0.79 0.48 94 1010.8
20260903135403 66 166 2.0 7.0 0.00 0.79 0.48 94 1010.8
20260903134403 66 148 1.0 8.0 0.00 0.79 0.48 94 1010.6
20260903133403 66 178 1.0 7.0 0.00 0.79 0.48 94 1010.6
20260903132403 66 163 1.0 9.0 0.00 0.79 0.48 94 1010.8
20260903131403 65 182 1.0 9.0 0.00 0.79 0.48 94 1010.8
20260903130403 65 171 2.0 9.0 0.00 0.79 0.48 94 1010.7
20260903125404 65 183 3.0 12.0 0.00 0.79 0.48 94 1010.8
20260903123424 65 185 3.0 8.0 0.00 0.79 0.48 95 1010.8
20260903122424 64 190 1.0 9.0 0.00 0.79 0.48 95 1010.8
20260903121403 64 158 2.0 8.0 0.00 0.79 0.48 95 1010.8
20260903120403 64 181 1.0 8.0 0.00 0.79 0.48 95 1010.8
20260903115403 64 196 2.0 10.0 0.00 0.79 0.48 95 1010.9
20260903114403 63 202 1.0 8.0 0.00 0.79 0.48 95 1011.1
20260903113403 63 203 2.0 15.0 0.00 0.79 0.48 95 1011.1
20260903112403 63 191 2.0 9.0 0.00 0.79 0.48 95 1011.1
20260903111403 63 163 1.0 7.0 0.00 0.79 0.48 95 1011.1
20260903110403 63 154 1.0 9.0 0.00 0.79 0.48 95 1011.0
20260903105403 63 175 1.0 9.0 0.00 0.79 0.48 95 1010.9
20260903104402 63 195 0.0 14.0 0.00 0.79 0.48 95 1010.8
20260903103403 63 187 1.0 6.0 0.00 0.79 0.48 95 1010.8
20260903102424 63 203 1.0 8.0 0.00 0.79 0.48 95 1010.7
20260903101403 63 192 0.0 11.0 0.00 0.79 0.48 95 1010.6
20260903100425 62 160 1.0 9.0 0.00 0.79 0.48 95 1010.5
20260903095403 62 164 3.0 9.0 0.00 0.79 0.48 95 1010.5
20260903094403 62 186 3.0 9.0 0.00 0.79 0.48 95 1010.3
20260903093403 62 181 3.0 11.0 0.00 0.79 0.48 95 1010.4
20260903092403 62 196 2.0 10.0 0.00 0.79 0.48 94 1010.4
20260903091403 62 157 1.0 11.0 0.00 0.79 0.48 95 1010.4
20260903090403 62 177 3.0 9.0 0.00 0.79 0.48 95 1010.4
20260903085403 62 195 2.0 14.0 0.00 0.79 0.48 95 1010.3
20260903084403 61 165 3.0 10.0 0.00 0.79 0.48 94 1010.6
20260903083424 61 153 3.0 10.0 0.00 0.79 0.48 94 1010.5
20260903082424 61 169 1.0 14.0 0.00 0.79 0.48 94 1010.6
20260903081403 61 177 3.0 15.0 0.00 0.79 0.48 94 1010.5
20260903080403 61 178 3.0 12.0 0.00 0.79 0.48 94 1010.8
20260903075424 61 177 2.0 19.0 0.01 0.79 0.48 94 1010.8
20260903074403 61 198 2.0 12.0 0.00 0.78 0.47 94 1010.8
20260903073423 61 177 2.0 14.0 0.00 0.78 0.47 94 1010.8
20260903072403 61 189 3.0 10.0 0.00 0.78 0.47 94 1010.8
20260903071423 61 190 2.0 17.0 0.00 0.78 0.47 94 1010.8
20260903070403 61 170 2.0 14.0 0.00 0.78 0.47 94 1010.6
20260903065402 61 165 3.0 16.0 0.04 0.78 0.47 94 1010.8
20260903064403 61 178 5.0 11.0 0.04 0.78 0.47 94 1010.8
20260903063402 62 213 2.0 11.0 0.04 0.78 0.47 94 1010.8
20260903062403 62 58 0.0 14.0 0.04 0.78 0.47 94 1010.7
20260903061423 62 172 2.0 11.0 0.02 0.76 0.45 94 1010.9
20260903060403 62 175 2.0 11.0 0.00 0.74 0.43 94 1011.0
20260903055402 62 164 1.0 8.0 0.10 0.73 0.42 94 1011.1